[[{"header":{"parameterUnit":"m.s-1","parameterCategory":1,"la1":30.2991,"la2":30.254,"lo1":-89.0895,"lo2":-89.0444,"dy":0.0017,"dx":0.0017,"nx":28,"ny":28,"refTime":"2026-01-01T09:00:00:Z","depth":0,"parameterNumber":2,"parameterNumberName":"U-component_of_WINDS"},"data":[0,0,0,0,0,0,0,0,0,0,0,0,0,0,0,0,0,0,0,0,0,0,0,0,0,0,0,0,0,0,0,0,0,0,0,0,0,0,0,0,0,0,0,0,0,0,0,0,0,0,0,0,0,0,0,0,0,0,3.4323,3.4324,0,3.4402,3.4403,3.4404,3.4368,3.4366,3.4364,3.4362,3.4447,3.4451,3.4455,0,0,0,0,0,0,0,0,0,0,0,0,0,3.4144,3.4147,3.4323,3.4324,3.4325,3.4402,3.4403,3.4405,3.4368,3.4366,3.4364,3.4361,3.4446,3.4451,3.4455,0,0,0,0,0,0,0,0,0,0,0,0,0,3.4222,3.4148,3.4323,3.4316,3.4316,3.4402,3.4403,3.4405,3.4369,3.4366,3.4363,3.436,3.4444,3.445,3.4456,3.4554,0,0,3.4475,3.4478,0,0,0,0,0,0,0,0,3.4218,3.4229,3.4316,3.4317,3.4317,3.4372,3.4371,3.4455,3.437,3.4349,3.4362,3.4359,3.4425,3.4432,3.4454,3.4558,3.4562,3.4476,3.4479,3.4482,3.4484,0,0,0,0,0,0,0,3.4213,3.4225,3.4354,3.4317,3.4318,3.4311,3.4318,3.4387,3.4403,3.4351,3.4348,3.4358,3.4425,3.4448,3.4456,3.4563,3.4475,3.4481,3.4485,3.4487,3.4755,3.4758,0,0,0,0,0,0,3.4207,3.4221,3.4352,3.4357,3.4259,3.4316,3.4325,3.4358,3.4402,3.4406,3.436,3.4356,3.4439,3.4449,3.4459,3.4578,3.4482,3.4488,3.4491,3.4751,3.4755,3.4759,0,0,0,0,0,0,3.4203,3.4219,3.4349,3.4288,3.4304,3.4322,3.4359,3.4361,3.4384,3.4409,3.4412,3.4381,3.4437,3.445,3.4531,3.458,3.4491,3.4496,3.4747,3.4753,3.4757,3.4817,0,0,0,0,0,0,3.4198,3.4217,3.4254,3.4289,3.4308,3.4419,3.4362,3.4364,3.4395,3.439,3.443,3.4434,3.4436,3.4522,3.4537,3.4587,3.4501,3.4743,3.475,3.4756,3.481,3.4823,3.4834,0,0,0,0,0,3.4192,3.4267,3.4256,3.4272,3.4353,3.4421,3.4432,3.4432,3.4399,3.4436,3.4453,3.4432,3.4572,3.4531,3.4547,3.46,3.474,3.4748,3.4755,3.4805,3.4821,3.4834,0,0,0,0,0,0,3.4237,3.4272,3.4259,3.4348,3.4382,3.4415,3.4462,3.4448,3.4493,3.4486,3.4485,3.4495,3.4579,3.4598,3.4551,3.4699,3.4651,3.4663,3.4683,3.4698,3.471,3.4704,3.4506,0,0,0,0,0,3.4258,3.4309,3.4337,3.4413,3.443,3.4444,3.4473,3.4471,3.4506,3.452,3.4543,3.4579,3.4631,3.4666,3.4715,3.4813,3.4822,3.4858,3.4869,3.4879,3.4889,3.4945,3.4961,3.4784,3.4784,3.4784,0,0,3.43,3.4326,3.4358,3.4423,3.4449,3.4504,3.4456,3.4515,3.4557,3.453,3.4608,3.4626,3.4667,3.4757,3.4798,3.4775,3.494,3.4889,3.4896,3.4901,3.4954,3.4971,3.4986,3.479,3.4789,3.4788,0,0,3.4406,3.443,3.4497,3.4524,3.4564,3.4572,3.4589,3.4624,3.4635,3.4713,3.4695,3.4745,3.4835,3.4865,3.4892,3.5013,3.4996,3.5029,3.5091,3.5145,3.5159,3.5171,3.5216,3.5232,3.5039,3.5039,3.5039,0,3.4455,3.4535,3.4533,3.4595,3.4625,3.4603,3.4672,3.4699,3.4753,3.4775,3.4748,3.4862,3.4888,3.4986,3.5016,3.5038,3.5058,3.5024,3.5157,3.5169,3.5181,3.5224,3.524,3.5043,3.5042,3.5042,3.5042,0,3.4594,3.465,3.47,3.4753,3.4788,3.4854,3.4863,3.49,3.4895,3.4907,3.4988,3.5019,3.5075,3.5098,3.5093,3.5197,3.5181,3.5156,3.5108,3.5202,3.5242,3.5258,3.5048,3.5047,3.5046,3.5045,0,0,3.473,3.4782,3.48,3.4825,3.4868,3.4913,3.4978,3.5033,3.5065,3.5104,3.516,3.5238,3.5215,3.5246,3.5245,3.5292,3.5388,3.5261,3.5262,3.5285,3.5507,3.5526,3.5545,3.5378,3.5381,3.5383,3.5504,0,3.484,3.4953,3.4954,3.5059,3.5113,3.5093,3.5151,3.5185,3.5198,3.5247,3.5263,3.5318,3.5283,3.5302,3.5348,3.5367,3.5433,3.5358,3.5432,3.5434,3.5423,3.5565,3.5586,3.5698,3.5519,3.5522,3.5524,0,3.4983,3.5027,3.5137,3.5175,3.5197,3.5248,3.53,3.5346,3.5385,3.5392,3.5428,3.542,3.5489,3.5439,3.5535,3.5485,3.5515,3.5529,3.5534,3.5541,3.5485,3.5578,3.5733,3.575,3.5548,3.5546,3.5544,0,3.5073,3.516,3.5237,3.5259,3.5304,3.5341,3.5362,3.5398,3.5432,3.5477,3.5499,3.5552,3.5582,3.5624,3.5632,3.5595,3.5729,3.5679,3.5738,3.5738,3.5768,3.5766,3.5931,3.5786,3.5786,3.5785,3.5785,0,3.5197,3.5265,3.5278,3.5326,3.5403,3.5405,3.5482,3.55,3.5533,3.5585,3.5572,3.5622,3.5629,3.5682,3.5688,3.5768,3.5781,3.579,3.5791,3.5792,3.5791,3.5812,3.5805,3.579,3.5789,3.5788,3.5787,0,3.531,3.5321,3.5405,3.5442,3.5453,3.5508,3.554,3.5587,3.56,3.5667,3.5683,3.5704,3.5765,3.5777,3.5849,3.5854,3.5949,3.5942,3.5936,3.5935,3.5994,3.5989,3.6179,3.6205,3.6042,3.6044,3.6045,0,3.5388,3.5441,3.5483,3.5517,3.554,3.5595,3.5629,3.5634,3.567,3.572,3.5762,3.5821,3.5869,3.5968,3.5991,3.6047,3.6042,3.6105,3.605,3.6049,3.6044,3.6041,3.6048,3.6115,3.6117,3.6118,3.6119,0,3.5527,3.553,3.558,3.5632,3.5673,3.5715,3.5754,3.5783,3.5793,3.5836,3.5898,3.5935,3.6009,3.6069,3.6126,3.6149,3.6137,3.6137,3.6153,3.6155,3.6149,3.6155,3.5966,3.6132,3.6131,3.613,3.6129,3.6129,3.5626,3.5673,3.571,3.5767,3.5797,3.5835,3.5881,3.59,3.5951,3.6012,3.6012,3.608,3.6121,3.6195,3.6222,3.6277,3.6257,3.6281,3.6288,3.6294,3.63,3.614,3.6287,3.6287,3.6287,3.6286,3.6286,0,3.5765,3.5789,3.584,3.5896,3.5941,3.5925,3.5969,3.6008,3.6068,3.6106,3.6154,3.6227,3.6285,3.6313,3.6372,3.6411,3.6407,3.6426,3.6424,3.643,3.6313,3.6293,3.6428,3.6428,3.6428,3.6428,3.6428,3.6428,3.5843,3.5921,3.593,3.6024,3.6047,3.6114,3.614,3.6176,3.6207,3.6288,3.6337,3.6354,3.6389,3.6451,3.6505,3.6512,3.6534,3.6557,3.6561,3.6452,3.6438,3.6424,3.6405,3.6561,3.6562,3.6673,3.6674,3.6675]},{"header":{"parameterUnit":"m.s-1","parameterCategory":1,"la1":30.2991,"la2":30.254,"lo1":-89.0895,"lo2":-89.0444,"dy":0.0017,"dx":0.0017,"nx":28,"ny":28,"refTime":"2026-01-01T09:00:00:Z","depth":0,"parameterNumber":3,"parameterNumberName":"V-component_of_WINDS"},"data":[0,0,0,0,0,0,0,0,0,0,0,0,0,0,0,0,0,0,0,0,0,0,0,0,0,0,0,0,0,0,0,0,0,0,0,0,0,0,0,0,0,0,0,0,0,0,0,0,0,0,0,0,0,0,0,0,0,0,0.457,0.457,0,0.4552,0.4552,0.4552,0.4535,0.4535,0.4535,0.4534,0.4516,0.4516,0.4515,0,0,0,0,0,0,0,0,0,0,0,0,0,0.4587,0.4586,0.457,0.457,0.4569,0.4552,0.4552,0.4552,0.4535,0.4535,0.4534,0.4534,0.4516,0.4516,0.4515,0,0,0,0,0,0,0,0,0,0,0,0,0,0.4575,0.4586,0.457,0.4559,0.4558,0.4552,0.4552,0.4552,0.4535,0.4535,0.4534,0.4534,0.4516,0.4516,0.4515,0.4519,0,0,0.4514,0.4514,0,0,0,0,0,0,0,0,0.4576,0.4575,0.4561,0.456,0.4558,0.4545,0.4551,0.4541,0.4535,0.4544,0.4534,0.4534,0.4526,0.4525,0.4522,0.4518,0.4517,0.4514,0.4514,0.4513,0.4513,0,0,0,0,0,0,0,0.4577,0.4575,0.4563,0.456,0.4559,0.4554,0.4552,0.4549,0.4537,0.4543,0.4542,0.454,0.4525,0.4523,0.4522,0.4517,0.4514,0.4513,0.4513,0.4513,0.4514,0.4514,0,0,0,0,0,0,0.4579,0.4576,0.4563,0.4562,0.4567,0.4554,0.4552,0.455,0.4537,0.4535,0.454,0.4539,0.4523,0.4522,0.4521,0.4524,0.4513,0.4513,0.4513,0.4514,0.4514,0.4514,0,0,0,0,0,0,0.458,0.4578,0.4564,0.4569,0.4567,0.4554,0.4552,0.455,0.4547,0.4535,0.4532,0.454,0.4523,0.4521,0.4519,0.4523,0.4513,0.4512,0.4513,0.4514,0.4514,0.453,0,0,0,0,0,0,0.458,0.4579,0.4581,0.4569,0.4566,0.4564,0.4552,0.455,0.4546,0.4545,0.4534,0.4532,0.4523,0.452,0.4519,0.4522,0.4512,0.4513,0.4514,0.4514,0.4529,0.4531,0.4532,0,0,0,0,0,0.4581,0.4586,0.4581,0.4579,0.4569,0.4564,0.4562,0.4552,0.4547,0.4548,0.454,0.4532,0.4523,0.452,0.4519,0.4522,0.4513,0.4513,0.4514,0.4528,0.453,0.4532,0,0,0,0,0,0,0.4598,0.4584,0.4578,0.458,0.4573,0.4561,0.4563,0.4555,0.455,0.4548,0.4536,0.4533,0.4533,0.4527,0.4524,0.4524,0.4516,0.4517,0.4528,0.453,0.4531,0.4533,0.4512,0,0,0,0,0,0.4602,0.46,0.4587,0.459,0.4587,0.4575,0.4573,0.4565,0.4558,0.4555,0.4547,0.4539,0.4535,0.4532,0.4527,0.4528,0.4525,0.4529,0.4531,0.4532,0.4533,0.4532,0.4533,0.4516,0.4516,0.4516,0,0,0.461,0.4602,0.4602,0.4593,0.4587,0.4584,0.4573,0.4571,0.4568,0.4555,0.4552,0.4546,0.4536,0.4536,0.4535,0.4531,0.4536,0.4533,0.4534,0.4534,0.4532,0.4534,0.4535,0.4517,0.4517,0.4517,0,0,0.4623,0.4618,0.4618,0.4612,0.4603,0.4595,0.4595,0.4584,0.4579,0.4577,0.4566,0.4562,0.4555,0.4548,0.4544,0.4553,0.4545,0.4552,0.4561,0.456,0.4561,0.4562,0.4565,0.4566,0.4553,0.4553,0.4553,0,0.4635,0.463,0.462,0.4618,0.4614,0.4601,0.4601,0.4596,0.4585,0.4583,0.4578,0.4567,0.4561,0.4558,0.456,0.4557,0.4556,0.4553,0.4562,0.4563,0.4564,0.4566,0.4567,0.4553,0.4553,0.4553,0.4553,0,0.4644,0.4641,0.4643,0.4633,0.4629,0.4628,0.4617,0.4614,0.4607,0.4599,0.4595,0.4587,0.4579,0.4578,0.4571,0.4573,0.4571,0.4564,0.4557,0.4566,0.4568,0.4569,0.4555,0.4554,0.4554,0.4554,0,0,0.4668,0.4652,0.4653,0.4647,0.4636,0.4633,0.4631,0.4624,0.4621,0.4614,0.4612,0.4605,0.4598,0.4594,0.4586,0.4585,0.4591,0.4578,0.4578,0.458,0.4592,0.4597,0.4599,0.4586,0.4586,0.4586,0.4593,0,0.4679,0.4675,0.4665,0.4664,0.4661,0.4648,0.4646,0.4638,0.4631,0.4626,0.4617,0.4613,0.4605,0.4602,0.46,0.4591,0.4594,0.459,0.4583,0.4583,0.4585,0.46,0.4605,0.4612,0.4594,0.4594,0.4594,0,0.4692,0.4685,0.4684,0.4672,0.467,0.4668,0.466,0.4656,0.4647,0.4641,0.4635,0.4626,0.4622,0.4615,0.4609,0.4607,0.4603,0.4598,0.4598,0.4597,0.4589,0.4598,0.4614,0.4615,0.4595,0.4595,0.4595,0,0.4709,0.47,0.4697,0.4694,0.4679,0.4678,0.4672,0.4662,0.4658,0.4651,0.4648,0.464,0.4635,0.4629,0.4618,0.4614,0.4612,0.4605,0.4607,0.4607,0.4608,0.4608,0.4622,0.4606,0.4606,0.4606,0.4606,0,0.4722,0.4721,0.4705,0.4704,0.4702,0.469,0.4689,0.4681,0.4672,0.4669,0.4657,0.4653,0.4639,0.4633,0.4624,0.462,0.4618,0.4613,0.461,0.4614,0.4614,0.4611,0.461,0.4606,0.4606,0.4606,0.4606,0,0.4741,0.473,0.4726,0.4713,0.4709,0.4709,0.4697,0.4694,0.4686,0.4681,0.4679,0.4666,0.4658,0.4646,0.4636,0.463,0.4627,0.4623,0.463,0.4629,0.4632,0.4631,0.4644,0.4645,0.4628,0.4629,0.4629,0,0.475,0.4749,0.4735,0.4732,0.4726,0.4721,0.4717,0.4704,0.47,0.4688,0.4687,0.4679,0.4672,0.4661,0.4649,0.4641,0.4636,0.4641,0.4635,0.4638,0.4636,0.4636,0.4635,0.4643,0.4643,0.4643,0.4644,0,0.4766,0.4761,0.4755,0.4747,0.4742,0.4735,0.4727,0.4725,0.471,0.4706,0.4699,0.4693,0.4682,0.4674,0.4663,0.4656,0.4647,0.4646,0.4646,0.4649,0.4653,0.465,0.4634,0.4645,0.4645,0.4645,0.4645,0.4645,0.478,0.4779,0.4768,0.4762,0.4755,0.4748,0.4744,0.4735,0.4729,0.4719,0.4712,0.4705,0.4694,0.4679,0.4672,0.4666,0.4662,0.4662,0.4662,0.4662,0.4663,0.4654,0.4664,0.4664,0.4664,0.4664,0.4663,0,0.4796,0.4788,0.4783,0.4772,0.4767,0.4759,0.475,0.4746,0.474,0.473,0.4723,0.4714,0.4706,0.4694,0.4684,0.4681,0.4677,0.4679,0.4679,0.4677,0.4667,0.4668,0.4683,0.4683,0.4683,0.4683,0.4683,0.4683,0.4803,0.48,0.4793,0.4785,0.4778,0.4771,0.4766,0.4759,0.4751,0.4742,0.4735,0.4727,0.4716,0.4705,0.4697,0.4693,0.469,0.4694,0.4689,0.468,0.4678,0.4676,0.4677,0.4693,0.4693,0.4699,0.4699,0.4699]}]]